Other Public Products
Issued by NWS Grand Forks, ND

Home | Current Version | Previous Version | Graphics & Text | Print | Product List | Glossary On
Versions: 1 2 3 4 5 6 7 8 9 10 11 12 13 14 15 16 17 18 19 20 21 22 23 24 25 26 27 28 29 30 31 32 33 34 35 36 37 38 39 40 41 42 43 44 45 46 47 48 49 50
000
FPUS83 KFGF 241610
OPUFGF
PRAIRIE TO PINES WEATHER ROUNDUP
NATIONAL WEATHER SERVICE EASTERN NORTH DAKOTA/GRAND FORKS ND
1000 AM CST SAT FEB 24 2018

 **SATELLITE DATA USED TO AUGMENT SKY COVER AT AUTOMATED STATIONS**
 *****  WEATHER ACROSS EASTERN NORTH DAKOTA  *****

CITY           SKY/WX    TMP DP  RH WIND       PRES   REMARKS
GRAND FORKS    FAIR       6   2  83 S14       29.99F WCI -11
GRND FORKS AFB FAIR      10   3  72 S14       29.97F WCI  -6
GRND FORKS NWS   N/A      3   1  91 S13       29.97F WCI -14
BUXTON           N/A      1   1  99 S9          N/A  WCI -14
DEVILS LAKE    FAIR      12   7  80 SE8       29.88F WCI   0
FARGO          FAIR       5   2  87 S10       30.04F VSB 1   WCI -10
WAHPETON ARPT  FAIR       5   1  85 SE5       30.06F WCI  -4
$$

 *****  WEATHER ACROSS CENTRAL AND WESTERN NORTH DAKOTA  *****

CITY           SKY/WX    TMP DP  RH WIND       PRES   REMARKS
JAMESTOWN      CLOUDY     7   3  84 S10       29.91F WCI  -8
BISMARCK       CLOUDY    10   4  76 SW3       29.87F
MINOT          PTSUNNY   13   3  64 S13       29.77F WCI  -2
MINOT AFB      CLOUDY    12   3  66 S12         N/A  WCI  -2
GARRISON         N/A      9   4  80 SE5       29.79F WCI   1
WILLISTON      FAIR      -1  -5  82 SW6       29.75F WCI -13
DICKINSON      CLOUDY    15  11  83 S9        29.71F WCI   3
HETTINGER      CLOUDY     8   4  83 SW5       29.77F WCI   0
$$

 *****  OTHER OBSERVATIONS NORTHEAST NORTH DAKOTA  *****

CITY           SKY/WX    TMP DP  RH WIND       PRES   REMARKS
WALHALLA       FAIR      16   7  67 S9        29.92F WCI   4
LANGDON        FAIR       9   5  85 S12       29.87F WCI  -6
CAVALIER         N/A      5   0  78 S14       29.94F WCI -12
GRAFTON        FAIR       7   1  78 S16       30.00F WCI -11
CANDO          CLOUDY    14  12  92 S12       29.87F WCI   0
FORT TOTTEN      N/A     11   5  75 S12       29.95S WCI  -3
ROLLA          FAIR       7   3  85 S13       29.81S WCI  -9
RUGBY          FAIR      10   5  79 S14G21    29.82F WCI  -5
 ***** THE ABOVE OBSERVATIONS ARE NON NWS ARE NOT QUALITY
        CONTROLLED AND MAY MIS-REPORT RAIN FOR SNOW...
$$

 *****  OTHER OBSERVATIONS SOUTHEAST NORTH DAKOTA *****

CITY           SKY/WX    TMP DP  RH WIND       PRES   REMARKS
COOPERSTOWN    FAIR       9   5  85 S15       29.94F WCI  -8
VALLEY CITY    FAIR       1   1 100 S9        29.97F WCI -14
OAKES            N/A      3   1  92 S7        29.99S WCI  -9
GWINNER          N/A      5   3  92 CALM      30.00S
SHEYENNE NWR     N/A      6   3  86 S2        29.95S
BUFFALO          N/A      5   1  86 NE8         N/A  WCI  -8
WYNDMERE       NOT AVBL
 ***** THE ABOVE OBSERVATIONS ARE NON NWS ARE NOT QUALITY
       CONTROLLED AND MAY MIS-REPORT RAIN FOR SNOW...
$$

  *****  WEATHER ACROSS NORTHERN MINNESOTA  *****

CITY           SKY/WX    TMP DP  RH WIND       PRES   REMARKS
FLAG ISLAND    LGT SNOW   0  -4  85 S13       30.00F WCI -18
WARROAD        FAIR      12   7  79 SW7       30.00F WCI   2
ROSEAU         FAIR      10   5  79 S12       30.00  WCI  -4
HALLOCK        FAIR       9   3  78 S20G25    29.98F WCI -11
THF RVR FALLS  FLURRIES   8   4  83 S9        30.02F WCI  -5
HALSTAD        NOT AVBL
FOSSTON        FAIR      10   7  85 S7        30.01F WCI   0
BAUDETTE       FAIR       9   5  84 S8        30.01F WCI  -3
WASKISH        PTSUNNY   16   9  73 SE5       30.03F WCI   9
CROOKSTON      FAIR       7   1  78 S9        30.03F WCI  -7
$$
  *****  WEATHER ACROSS CENTRAL AND WEST MINNESOTA  *****

CITY           SKY/WX    TMP DP  RH WIND       PRES   REMARKS
BEMIDJI        FAIR       7   4  89 SE5       30.04F WCI  -2
PARK RAPIDS    FAIR       7   3  84 SE9       30.04F WCI  -7
WADENA         FAIR       9   5  85 E5        30.04F WCI   0
DETROIT LAKES  FAIR       9   5  85 SE7       30.03F WCI  -3
MOORHEAD       FAIR       3   0  85 S6        30.05S WCI  -8
FERGUS FALLS   FAIR      10   7  85 SE10      30.04F WCI  -3
ELBOW LAKE     FAIR      10   8  91 SE10      30.03F WCI  -4
MORRIS MN      FAIR       9   5  85 SE3       30.03F
STAPLES        FAIR       9   7  92 SE3       30.06F
WHEATON        FAIR       3   1  92 SE3       30.07F
$$
  *****  WEATHER ELSEWHERE ACROSS MINNESOTA  *****

CITY           SKY/WX    TMP DP  RH WIND       PRES   REMARKS
DULUTH         FAIR      17   8  67 SE13      30.09F WCI   4
INTRNTL FALLS  FAIR      12   7  80 SE6       30.05F WCI   3
ELY            FAIR      10   7  85 CALM      30.08F
CLOQUET        FAIR      16   7  67 SE7       30.10S WCI   6
BRAINERD       FAIR      12   6  77 E3        30.08F
HIBBING        FAIR       9   4  80 SE7       30.06F WCI  -2
ALEXANDRIA     PTSUNNY   11   6  81 SE12      30.04F WCI  -3
SAINT CLOUD    CLOUDY    15  13  91 E6        30.08F WCI   6
MINNEAPOLIS    PTSUNNY   18  16  92 SE7       30.07F FOG     WCI   9
$$

  *****  WEATHER ACROSS SOUTH DAKOTA  *****

CITY           SKY/WX    TMP DP  RH WIND       PRES   REMARKS
SIOUX FALLS    SNOW      17  13  84 NE6       29.97F VSB 1/4 WCI   9
BROOKINGS      CLOUDY    14  11  87 CALM      29.99F
WATERTOWN      LGT SNOW  15  13  91 SE6       29.96F VSB 1   WCI   6
HURON          SNOW       9   6  88 E5        29.97F VSB 1/4 WCI   1
SISSETON         N/A      8   4  83 SE9       30.01F WCI  -5
ABERDEEN       CLOUDY     9   4  80 SE9       29.99F WCI  -4
MITCHELL       SNOW      12   9  87 NE7       29.95F VSB 1/2 WCI   1
PIERRE         LGT SNOW  13  11  92 SE13      29.84F FOG     WCI  -2
MOBRIDGE       CLOUDY    15  11  83 S8        29.84F WCI   4
RAPID CITY     FAIR      12   5  73 N16       29.73S WCI  -5
$$

  *****  SOME WEATHER IN NEARBY STATES *****

CITY           SKY/WX    TMP DP  RH WIND       PRES   REMARKS
GLASGOW MT     CLOUDY     6   1  80 SE5       29.70F WCI  -3
GREAT FALLS MT FAIR      20   9  62 SW20      29.70F WCI   4
CHEYENNE WY    FAIR      18   1  47 W31G41    29.72R WCI  -2
SCOTTSBLUFF NE FAIR      20  12  71 NW12      29.78F WCI   8
OMAHA NE       FRZ DRZL  27  26  96 CALM      29.91F VSB 1
DES MOINES IA  FRZ DRZL  31  28  89 E13       29.93F WCI  21
DAVENPORT IA   LGT RAIN  34  30  85 E12       30.08F FOG
CHICAGO IL     PTSUNNY   36  30  79 E13       30.12F
EAU CLAIRE WI  FOG       18  16  92 NE8       30.13F VSB 1/2 WCI   8
LA CROSSE WI   FAIR      30  24  78 E9        30.12F HAZE    WCI  22
$$

  *****  SOME NATIONAL WEATHER *****

CITY           SKY/WX    TMP DP  RH WIND       PRES   REMARKS
LA GUARDIA NY  PTSUNNY   53  40  61 NW5       30.15S
RALEIGH NC     PTSUNNY   67  60  78 SW16      30.21F
ATLANTA GA     PTSUNNY   71  60  68 SW13      30.21F
NEW ORLEANS LA PTSUNNY   79  72  79 S14G24    30.10F
OKLAHOMA CITY  LGT RAIN  36  36 100 NW12      29.87F FOG
ALBUQUERQUE NM FAIR      32  14  47 N8        30.08R WCI  25
SALT LAKE CITY CLOUDY    23  16  74 SE10      30.16S WCI  12
LOS ANGELES CA FAIR      48  20  32 CALM      30.35R
BOISE ID       PTSUNNY   26  21  81 SE12      30.01F WCI  16
SEATTLE WA     CLOUDY    36  33  89 S5        29.97R
$$

*** WEATHER ACROSS MANITOBA...SASKATCHEWAN AND ONTARIO ***
                ***ONTARIO***

CITY           SKY/WX    TMP DP  RH WIND       PRES   REMARKS
GERALDTON      SUNNY     16  12  86 SW6       30.10S WCI   7
THUNDER BAY    SUNNY     16  10  79 W5        30.18F WCI   9
SIOUX LOOKOUT  SUNNY     10   5  79 S10       30.03F WCI  -3
TORONTO        PTSUNNY   36  27  69 N9        30.24F
BIG TROUT LK   SUNNY     12   1  62 S10       29.81F WCI  -1
PICKLE LAKE    MOSUNNY   12   3  67 SW9G18    29.96F WCI   0
DRYDEN         SUNNY     10   7  85 S12G17    29.99F WCI  -4
KENORA         SUNNY     10   7  85 S12G20    29.96F WCI  -4
$$
                *** MANITOBA***

CITY           SKY/WX    TMP DP  RH WIND       PRES   REMARKS
BRANDON        MOSUNNY    9   1  72 SW6       29.78F WCI  -1
DAUPHIN        SUNNY     18   3  53 SW3       29.70F
ISLAND LAKE    CLOUDY    14   5  67 S14G24    29.67F WCI  -1
PILOT MOUND      N/A     12   7  79 S20         N/A  WCI  -6
THE PAS        MOSUNNY   12   1  62 SW8       29.53F WCI   1
THOMPSON       PTSUNNY   12   3  67 S8        29.50F WCI   1
WINNIPEG       SUNNY     10   1  67 S22G28    29.90F WCI  -9
LYNN LAKE      MOSUNNY   16  12  86 W5        29.41S WCI   9
CHURCHILL      PTSUNNY   16  10  79 SW9G17    29.42S WCI   4
GILLAM         CLOUDY    14   5  67 SW14G22   29.53F WCI  -1
$$
                ***SASKATCHEWAN***

CITY           SKY/WX    TMP DP  RH WIND       PRES   REMARKS
ESTEVAN        MOSUNNY    9   0  66 SW9       29.70F WCI  -5
KINDERSLEY     CLOUDY    16   9  73 W8        29.55S WCI   5
LLOYDMINSTER   MOSUNNY   19  10  68 W16       29.48R WCI   5
PRINCE ALBERT  PTSUNNY    9   1  72 SW6       29.52S WCI  -1
REGINA         MOSUNNY    5  -2  72 S9        29.60F WCI  -9
YORKTON        SUNNY      7   0  72 S13       29.61F W



USA.gov is the U.S. government's official web portal to all federal, state and local government web resources and services.